Atlantic City, NJ

2:01 AM EDT on June 22, 2018 (GMT -0400)
Atlantic City International

Weather History for KACY - June, 2018

Change the Weather History Date:

Thursday, June 14, 2018

  Actual Average Record
Temperature  
Mean Temperature 76 °F 71 °F  
Max Temperature 86 °F 80 °F 96 °F (1945)
Min Temperature 65 °F 61 °F 40 °F (1980)
Degree Days  
Heating Degree Days 0 1  
Month to date heating degree days 11 21  
Since 1 June heating degree days 11 21  
Since 1 July heating degree days 4518 4899  
Cooling Degree Days 11 6  
Month to date cooling degree days 67 69  
Year to date cooling degree days 197 133  
Since 1 June cooling degree days 67 69  
Growing Degree Days 28 (Base 50)    
Moisture  
Dew Point 57 °F    
Average Humidity 61    
Maximum Humidity 94    
Minimum Humidity 27    
Precipitation  
Precipitation 0.00 in 0.11 in 0.89 in (2002)
Month to date precipitation 2.11 1.53  
Year to date precipitation 27.95 18.81  
Snow  
Snow 0.00 in 0.00 in T in (1955)
Month to date snowfall 0.0 0.0  
Since 1 June snowfall 0.0 0.0  
Since 1 July snowfall 34.1 16.5  
Snow Depth 0.00 in    
Sea Level Pressure  
Sea Level Pressure 29.83 in    
Wind  
Wind Speed 12 mph (WNW)    
Max Wind Speed 24 mph    
Max Gust Speed 35 mph    
Visibility 10 miles    
Events      
T = Trace of Precipitation, MM = Missing Value Source: NWS Daily Summary

Daily Weather History Graph

Daily Weather History Graph

Search for Another Location

Airport or City:

Astronomy

Jun. 14, 2018 Rise Set
Actual Time 5:30 AM EDT 8:26 PM EDT
Civil Twilight 4:58 AM EDT 8:59 PM EDT
Nautical Twilight 4:17 AM EDT 9:40 PM EDT
Astronomical Twilight 3:30 AM EDT 10:27 PM EDT
Moon 6:25 AM EDT (6/14) 9:25 PM EDT (6/14)
Length of Visible Light 16h 00m
Length of Day
14h 56m
New Moon, 1% of the Moon is Illuminated
Jun 14
New Moon
Jun 20
First Quarter
Jun 28
Full
Jul 6
Last Quarter
Jul 12
New

Hourly Weather History & Observations

Time (EDT) Temp. Heat Index Dew Point Humidity Pressure Visibility Wind Dir Wind Speed Gust Speed Precip Events Conditions
12:54 AM 75.9 °F - 72.0 °F 87% 29.81 in 10.0 mi WSW 8.1 mph - N/A   Partly Cloudy
1:54 AM 75.9 °F - 73.0 °F 91% 29.80 in 10.0 mi WSW 9.2 mph - N/A   Clear
2:54 AM 77.0 °F - 73.0 °F 88% 29.79 in 10.0 mi WSW 10.4 mph 17.3 mph N/A   Mostly Cloudy
3:54 AM 75.9 °F - 73.0 °F 91% 29.80 in 10.0 mi West 9.2 mph - N/A   Scattered Clouds
4:54 AM 75.0 °F - 64.0 °F 69% 29.82 in 10.0 mi NNW 10.4 mph - N/A   Overcast
5:54 AM 73.0 °F - 61.0 °F 66% 29.83 in 10.0 mi NW 8.1 mph - N/A   Scattered Clouds
6:54 AM 72.0 °F - 57.9 °F 61% 29.85 in 10.0 mi NW 10.4 mph - N/A   Clear
7:54 AM 73.9 °F - 53.1 °F 48% 29.86 in 10.0 mi NW 12.7 mph - N/A   Partly Cloudy
8:54 AM 75.0 °F - 54.0 °F 48% 29.88 in 10.0 mi WNW 15.0 mph 20.7 mph N/A   Clear
9:54 AM 77.0 °F - 52.0 °F 42% 29.87 in 10.0 mi NW 12.7 mph - N/A   Clear
10:54 AM 80.1 °F - 51.1 °F 36% 29.87 in 10.0 mi WNW 18.4 mph 24.2 mph N/A   Clear
11:54 AM 82.0 °F - 51.1 °F 34% 29.86 in 10.0 mi West 17.3 mph 25.3 mph N/A   Clear
12:54 PM 82.9 °F - 50.0 °F 32% 29.84 in 10.0 mi WNW 17.3 mph 26.5 mph N/A   Clear
1:54 PM 84.0 °F - 50.0 °F 31% 29.82 in 10.0 mi WNW 19.6 mph 31.1 mph N/A   Clear
2:54 PM 86.0 °F - 48.9 °F 28% 29.81 in 10.0 mi WNW 16.1 mph 29.9 mph N/A   Clear
3:54 PM 84.9 °F - 51.1 °F 31% 29.81 in 10.0 mi WNW 18.4 mph 28.8 mph N/A   Clear
4:54 PM 86.0 °F - 51.1 °F 30% 29.81 in 10.0 mi West 19.6 mph 29.9 mph N/A   Clear
5:54 PM 84.9 °F - 51.1 °F 31% 29.81 in 10.0 mi WNW 16.1 mph 26.5 mph N/A   Clear
6:54 PM 84.0 °F 82.5 °F 53.1 °F 34% 29.81 in 10.0 mi West 8.1 mph - N/A   Clear
7:54 PM 82.0 °F - 52.0 °F 35% 29.83 in 10.0 mi West 9.2 mph - N/A   Clear
8:54 PM 79.0 °F - 53.1 °F 40% 29.84 in 10.0 mi WSW 6.9 mph - N/A   Clear
9:54 PM 77.0 °F - 54.0 °F 45% 29.86 in 10.0 mi WSW 6.9 mph - N/A   Clear
10:54 PM 70.0 °F - 55.9 °F 61% 29.87 in 10.0 mi NW 5.8 mph - N/A   Clear
11:54 PM 68.0 °F - 55.9 °F 65% 29.88 in 10.0 mi NW 4.6 mph - N/A   Clear